SCP
0 0 0 0 0 0 0 0 0 0 0 0 0 0 0 0 0 0 0 0 0 0 0 0 -0 -0 -0 0 -0 -0 0 0 0 0 0 0 0 0 0 0 0 0 0
0 0 0 0 0 0 0 0 0 0 0 0 0 0 0 0 0 0 0 0 0 0 0 0 0 0 -0 -0 -0 -0 -0 0 0 -0 0 0 0 0 0 0 0 0 0
0 0 0 0 0 0 0 0 0 0 0 0 0 0 0 0 0 0 0 0 0 0 0 0 0 -0 -0 -0 -0 -0 -0 -0 -0 0 0 0 0 0 0 0 0 0 0
0 0 0 0 0 0 0 0 0 0 0 0 0 0 0 0 0 0 0 0 0 0 0 0 0 0 -0 -0 -0 -0 -0 -0 -0 -0 -0 -0 0 0 0 0 0 0 0
0 0 0 0 0 0 0 0 0 0 0 0 0 0 0 0 0 0 0 0 0 0 0 0 0 0 -0 -0 -0 -0 -0 -0 0 0 0 0 0 0 0 0 0 0 0
0 0 0 0 0 0 0 0 0 0 0 0 0 0 0 0 0 0 0 0 0 0 0 0 0 0 0 0 0 -0 0 0 0 0 -0 -0 0 0 0 0 0 -0 -0
0 0 0 0 0 0 0 0 0 0 0 0 0 0 0 0 0 0 0 0 0 0 0 0 0 0 0 0 0 0 0 0 0 -0 -0 -0 0 0 0 0 0 0 0
0 0 0 0 0 0 0 0 0 0 0 0 0 0 0 0 0 0 0 0 0 0 0 0 0 0 0 0 0 0 0 0 0 0 -0 -0 0 0 0 0 0 0 0
0 0 0 0 0 0 0 0 0 0 0 0 0 0 0 0 0 0 0 0 0 0 0 0 0 0 0 0 0 0 0 0 0 0 0 -0 0 0 0 0 0 0 0
0 0 0 0 0 0 0 0 0 0 0 0 0 0 0 0 0 0 0 0 0 0 0 0 0 0 0 -0 0 0 0 0 0 0 0 0 -0 0 0 0 0 0 0
0 0 0 0 0 0 0 0 0 0 0 0 0 0 0 0 0 0 0 0 0 0 0 0 0 0 0 -0 -0 0 0 0 0 -0 0 0 0 0 0 0 0 -0 -0
0 0 0 0 0 0 0 0 0 0 0 0 0 0 0 0 0 0 0 0 0 0 0 0 0 -0 -0 0 0 -0 0 0 0 0 0 0 0 0 0 0 0 0 -0
0 0 0 0 0 0 0 0 0 0 0 0 0 0 0 0 0 0 0 0 0 0 0 0 0 -0 -0 -0 0 0 0 0 0 0 0 0 0 0 -0 -0 -0 -0 -0
0 0 0 0 0 0 0 0 0 0 0 0 0 0 0 0 0 0 0 0 0 0 0 0 0 0 0 0 0 0 0 0 0 0 0 0 -0 0 0 -0 -0 -0 -0
0 0 0 0 0 0 0 0 0 0 0 0 0 0 0 0 0 0 0 0 0 0 0 0 0 0 0 0 0 0 0 0 0 0 0 -0 -0 0 -0 0 -0 -0 -0
0 0 0 0 0 0 0 0 0 0 0 0 0 0 0 0 0 0 0 0 0 0 0 0 0 0 0 0 0 0 0 0 0 0 0 0 -0 0 -0 -0 0 0 0
0 0 0 0 0 0 0 0 0 0 0 0 0 0 0 0 0 0 0 0 0 0 0 0 0 0 0 0 0 0 0 0 0 0 0 0 0 0 0 -0 -0 -0 -0
0 0 0 0 0 0 0 0 0 0 0 0 0 0 0 0 0 0 0 0 0 0 0 0 0 0 0 0 0 0 0 0 0 0 0 -0 -0 0 -0 -0 0 0 0
0 0 0 0 0 0 0 0 0 0 0 0 0 0 0 0 0 0 0 0 0 0 0 0 0 0 0 0 0 0 0 0 0 0 0 -0 -0 -0 -0 0 0 0 0
0 0 0 0 0 0 0 0 0 0 0 0 0 0 0 0 0 0 0 0 0 0 0 0 0 0 0 0 0 0 0 0 0 0 0 -0 -0 -0 -0 0 0 0 0
0 0 0 0 0 0 0 0 0 0 0 0 0 0 0 0 0 0 0 0 0 0 0 0 0 0 0 0 0 0 0 0 0 0 0 -0 -0 0 0 0 0 0 0
0 0 0 0 0 0 0 0 0 0 0 0 0 0 0 0 0 0 0 0 0 0 0 0 0 0 0 0 0 0 0 0 0 0 0 0 0 0 0 0 0 0 0
0 0 0 0 0 0 0 0 0 0 0 0 0 0 0 0 0 0 0 0 0 0 0 0 0 0 0 0 0 0 0 0 0 0 0 0 0 0 0 0 0 0 0
0 0 0 0 0 0 0 0 0 0 0 0 0 0 -0 0 0 0 0 0 0 0 0 0 0 0 0 0 0 0 0 0 0 0 0 0 0 0 0 0 0 0 0
0 0 0 0 0 0 0 0 0 0 0 0 0 0 -0 0 0 -0 -0 -0 0 0 0 0 0 0 0 0 0 0 0 0 0 0 0 0 0 0 0 0 0 0 0
0 0 0 0 0 0 0 0 0 0 0 0 0 0 0 0 0 0 0 0 0 0 0 0 0 0 0 0 0 0 0 0 0 0 0 0 0 0 0 0 0 0 0
Wind_Speed_500mb
20 22 23 29 29 17 21 28 35 40 43 41 40 42 41 39 41 39 34 34 28 23 23 25 25 24 22 24 26 31 36 41 46 38 31 24 16 20 24 24 22 21 26
23 24 25 31 22 20 24 30 34 41 39 37 37 37 38 38 40 42 37 33 32 26 24 27 27 28 35 38 38 41 40 43 43 44 38 28 18 18 21 22 24 23 25
26 28 30 30 22 23 27 29 32 39 36 31 34 37 39 40 39 40 41 40 31 32 30 29 29 31 34 35 40 37 34 40 40 40 37 27 19 18 19 22 25 27 26
31 32 34 33 28 28 29 30 33 38 35 32 33 37 39 42 42 42 41 42 38 34 30 24 22 24 26 27 29 30 30 31 31 32 33 30 21 19 24 22 26 26 24
36 37 37 34 32 34 31 34 35 38 37 36 34 35 40 42 40 46 46 44 38 28 18 20 18 16 11 14 19 18 19 22 26 29 29 22 22 20 22 22 23 24 24
35 36 35 34 34 35 36 39 39 38 40 38 35 36 38 42 44 47 49 43 33 23 15 12 14 11 9 7 6 10 14 18 22 23 23 24 24 21 21 23 29 32 34
34 32 34 35 37 36 38 42 42 41 43 42 41 38 41 43 46 52 47 37 24 16 15 16 14 12 13 15 15 14 16 21 25 26 26 23 22 24 29 26 27 30 29
30 33 35 37 38 36 39 40 43 42 44 46 44 42 42 44 47 53 41 26 20 16 14 14 12 16 21 20 19 21 23 20 18 21 27 29 32 28 28 27 22 15 16
38 41 46 51 53 52 50 46 45 48 47 47 48 45 44 45 48 52 32 15 16 8 8 10 13 17 23 27 26 23 17 15 12 14 12 14 17 20 22 25 22 22 21
45 48 47 45 57 60 55 58 57 54 52 48 50 47 44 46 47 49 20 14 10 7 12 13 15 13 14 12 5 6 4 3 6 9 10 9 10 13 13 15 16 23 33
52 55 38 54 49 58 54 55 50 57 55 55 51 49 45 43 42 43 20 17 17 12 11 14 15 10 7 2 4 4 5 7 4 7 8 8 6 2 8 9 12 17 34
42 42 45 47 38 56 59 56 44 61 55 56 55 54 51 43 39 38 28 22 22 21 17 15 12 10 6 3 6 7 5 5 10 15 16 14 9 8 8 5 4 11 17
33 34 36 37 42 45 45 45 46 53 54 53 53 48 48 44 42 37 34 30 25 26 26 23 20 18 14 12 14 16 17 14 16 17 18 16 14 9 11 8 15 16 12
34 36 36 34 34 35 33 31 34 35 40 39 40 42 43 42 46 40 37 34 33 31 31 31 27 25 23 22 19 18 19 17 16 10 10 5 13 16 17 15 17 13 24
44 45 46 46 46 41 34 35 33 27 28 39 44 43 42 45 42 45 42 42 39 41 35 33 34 29 26 25 23 19 16 14 13 6 4 11 15 19 17 18 20 32 37
52 47 46 46 46 42 45 44 37 39 41 39 33 35 50 48 55 60 54 53 49 45 48 40 35 34 31 29 27 23 19 19 14 13 12 12 11 15 18 16 22 34 28
44 42 42 40 38 40 41 42 52 45 44 38 39 35 30 43 52 60 61 57 56 54 54 47 40 38 35 32 32 29 24 18 21 21 21 18 16 17 20 20 24 30 25
37 38 38 37 37 39 39 40 41 45 49 50 45 45 46 37 34 50 51 57 62 60 63 51 50 44 41 37 34 34 28 26 23 26 27 26 24 24 23 24 25 26 27
36 36 39 36 36 39 38 39 39 40 40 41 44 44 49 56 50 44 40 35 35 45 51 62 56 54 48 45 40 38 39 31 29 31 33 34 32 29 28 27 28 31 31
37 43 43 38 39 40 40 41 41 40 40 41 43 46 53 65 62 58 52 47 34 35 44 53 54 53 55 55 52 46 47 48 46 36 41 38 37 37 35 34 33 33 33
39 41 45 39 39 40 40 43 41 40 42 43 45 48 65 64 54 53 57 54 55 55 34 36 54 58 56 56 57 59 54 54 50 45 46 44 42 42 40 39 37 36 30
38 41 40 41 41 40 42 41 43 46 48 49 52 54 63 56 57 57 57 59 59 59 73 55 44 44 61 64 62 62 64 64 62 55 50 50 48 46 47 45 41 39 37
40 41 41 41 41 43 44 43 45 46 50 53 54 59 63 65 66 65 65 65 62 61 62 76 92 65 52 57 69 69 70 76 74 66 60 55 54 53 52 54 50 45 45
43 42 43 43 42 45 44 47 48 51 53 52 56 61 64 71 74 77 77 73 71 70 69 80 80 100 81 63 57 68 75 77 86 81 70 64 60 59 57 55 54 55 51
45 44 44 45 44 44 46 47 51 53 54 54 61 64 71 79 87 86 85 83 89 88 78 74 73 79 99 89 70 64 69 78 84 92 88 75 68 65 63 61 57 57 52
46 45 45 44 43 45 46 50 52 54 56 58 64 68 82 87 94 100 101 102 97 94 87 80 74 75 77 98 96 77 77 78 87 91 95 89 80 74 68 65 62 59 55
Wind_Direction_500mb
281 285 288 302 307 298 317 327 331 331 325 329 331 336 339 340 342 346 348 336 325 327 314 310 303 293 290 281 276 275 274 276 280 286 285 294 292 264 254 254 251 247 243
275 277 290 307 295 296 312 320 324 329 327 329 333 339 342 337 332 332 334 334 334 324 310 299 294 283 281 281 279 278 275 280 278 278 283 292 284 270 258 255 250 249 244
273 279 293 303 287 302 308 316 317 327 329 332 334 339 339 337 338 336 329 331 323 318 313 302 299 289 280 273 275 274 270 277 274 270 276 279 271 270 262 255 254 251 250
275 282 294 304 286 299 302 312 315 324 329 324 332 335 337 336 335 332 328 326 323 319 317 314 311 301 287 276 270 272 273 269 268 267 269 272 266 265 262 262 265 259 257
279 285 296 305 290 292 297 304 311 321 323 321 324 329 333 334 332 327 326 324 323 322 321 321 321 326 315 274 264 266 267 265 266 265 263 258 256 259 261 266 262 259 258
284 292 295 298 303 290 299 301 303 311 318 320 317 320 327 332 334 325 323 319 319 314 313 327 320 328 336 315 271 261 269 271 262 249 257 255 260 259 266 266 266 261 261
286 293 295 299 300 304 297 299 304 303 310 314 316 311 318 327 328 327 322 317 310 310 297 296 302 294 300 306 287 283 290 288 276 270 266 262 267 268 276 268 274 270 245
287 296 297 298 301 306 301 300 300 304 302 311 310 310 312 325 325 326 319 309 299 304 298 290 280 276 288 293 286 287 294 296 288 286 269 264 267 272 265 265 269 248 217
289 296 304 306 302 299 298 303 304 301 301 304 308 310 308 320 326 327 317 293 301 317 331 312 293 287 290 291 287 282 287 295 299 295 289 269 266 268 259 251 245 218 214
297 304 311 301 301 299 297 300 301 300 299 299 306 308 307 314 322 326 308 292 282 295 328 321 314 291 302 311 288 287 300 346 61 48 30 350 309 263 228 215 226 212 200
301 303 296 292 300 306 297 293 301 302 297 298 299 307 307 310 315 322 295 283 272 268 297 313 300 299 307 324 118 106 122 106 36 338 334 335 340 218 157 170 188 209 205
303 302 295 302 302 294 281 292 288 293 297 300 299 303 307 309 308 314 294 282 268 263 272 287 278 296 259 235 212 171 194 293 303 301 284 287 250 223 192 213 174 184 204
315 313 313 312 293 286 290 298 287 279 293 293 298 296 301 307 306 303 304 276 267 265 266 262 266 269 262 250 236 242 263 283 289 300 300 279 231 193 184 189 158 149 144
330 324 321 321 321 323 327 326 316 295 292 288 293 293 293 295 300 295 300 289 264 264 270 256 254 255 254 256 256 265 276 272 279 303 317 180 175 170 171 165 167 180 151
336 330 326 326 323 322 317 311 319 322 315 304 291 283 292 289 288 294 289 289 282 262 263 259 253 251 249 249 255 254 258 269 263 236 163 169 168 169 184 176 177 149 164
332 332 331 332 325 326 318 314 313 305 297 298 303 296 280 279 280 277 277 276 275 275 258 255 251 241 241 239 241 246 253 260 242 203 180 169 167 167 162 169 179 170 170
343 338 338 338 337 335 332 331 323 308 302 302 295 300 311 289 268 265 260 260 264 262 257 247 246 238 239 240 235 238 245 255 214 204 190 177 162 159 151 151 156 162 156
354 348 349 345 344 343 341 338 335 333 331 323 317 311 295 291 292 273 266 258 254 255 251 246 242 239 238 238 235 233 234 244 212 202 198 191 178 174 164 161 162 157 154
355 350 351 346 344 347 343 343 342 340 338 335 332 329 326 313 300 290 296 282 266 256 257 249 245 240 237 236 236 232 229 231 221 204 200 198 191 183 184 177 175 171 169
349 346 348 342 340 340 343 342 340 340 339 337 338 339 339 336 331 318 308 294 290 286 260 251 251 246 238 237 235 234 230 229 227 213 204 200 193 186 187 183 182 188 188
335 336 340 340 335 334 334 335 333 333 331 328 326 326 331 334 327 322 317 311 297 270 270 267 254 250 248 242 234 230 227 223 221 216 210 206 201 192 190 193 191 191 197
328 327 327 329 329 329 327 331 327 326 325 323 321 322 327 327 319 314 309 305 301 293 270 257 249 249 249 243 239 231 226 222 218 216 211 206 203 199 197 195 195 193 191
322 324 322 319 321 321 324 324 325 323 321 318 319 320 321 320 316 310 303 299 293 285 281 271 260 251 232 245 240 234 230 224 219 215 213 209 207 206 202 200 199 197 190
320 318 321 318 316 317 319 319 322 321 322 320 319 317 318 317 314 310 306 299 293 286 274 268 266 261 250 227 237 240 233 230 227 219 215 212 209 207 203 203 202 202 199
316 314 314 316 315 315 315 318 319 320 321 320 321 320 322 320 317 313 307 299 292 288 277 269 264 258 257 246 227 225 236 229 225 225 218 214 212 206 204 204 202 201 203
313 311 311 310 310 313 314 315 318 319 320 319 323 323 326 327 324 316 310 304 293 284 276 268 261 254 252 249 242 223 219 231 228 226 223 217 211 208 206 205 204 204 204
Wind_Speed_850mb
20 22 23 29 29 17 21 28 35 40 43 41 40 42 41 39 41 39 34 34 28 23 23 25 25 24 22 24 26 31 36 41 46 38 31 24 16 20 24 24 22 21 26
23 24 25 31 22 20 24 30 34 41 39 37 37 37 38 38 40 42 37 33 32 26 24 27 27 28 35 38 38 41 40 43 43 44 38 28 18 18 21 22 24 23 25
26 28 30 30 22 23 27 29 32 39 36 31 34 37 39 40 39 40 41 40 31 32 30 29 29 31 34 35 40 37 34 40 40 40 37 27 19 18 19 22 25 27 26
31 32 34 33 28 28 29 30 33 38 35 32 33 37 39 42 42 42 41 42 38 34 30 24 22 24 26 27 29 30 30 31 31 32 33 30 21 19 24 22 26 26 24
36 37 37 34 32 34 31 34 35 38 37 36 34 35 40 42 40 46 46 44 38 28 18 20 18 16 11 14 19 18 19 22 26 29 29 22 22 20 22 22 23 24 24
35 36 35 34 34 35 36 39 39 38 40 38 35 36 38 42 44 47 49 43 33 23 15 12 14 11 9 7 6 10 14 18 22 23 23 24 24 21 21 23 29 32 34
34 32 34 35 37 36 38 42 42 41 43 42 41 38 41 43 46 52 47 37 24 16 15 16 14 12 13 15 15 14 16 21 25 26 26 23 22 24 29 26 27 30 29
30 33 35 37 38 36 39 40 43 42 44 46 44 42 42 44 47 53 41 26 20 16 14 14 12 16 21 20 19 21 23 20 18 21 27 29 32 28 28 27 22 15 16
38 41 46 51 53 52 50 46 45 48 47 47 48 45 44 45 48 52 32 15 16 8 8 10 13 17 23 27 26 23 17 15 12 14 12 14 17 20 22 25 22 22 21
45 48 47 45 57 60 55 58 57 54 52 48 50 47 44 46 47 49 20 14 10 7 12 13 15 13 14 12 5 6 4 3 6 9 10 9 10 13 13 15 16 23 33
52 55 38 54 49 58 54 55 50 57 55 55 51 49 45 43 42 43 20 17 17 12 11 14 15 10 7 2 4 4 5 7 4 7 8 8 6 2 8 9 12 17 34
42 42 45 47 38 56 59 56 44 61 55 56 55 54 51 43 39 38 28 22 22 21 17 15 12 10 6 3 6 7 5 5 10 15 16 14 9 8 8 5 4 11 17
33 34 36 37 42 45 45 45 46 53 54 53 53 48 48 44 42 37 34 30 25 26 26 23 20 18 14 12 14 16 17 14 16 17 18 16 14 9 11 8 15 16 12
34 36 36 34 34 35 33 31 34 35 40 39 40 42 43 42 46 40 37 34 33 31 31 31 27 25 23 22 19 18 19 17 16 10 10 5 13 16 17 15 17 13 24
44 45 46 46 46 41 34 35 33 27 28 39 44 43 42 45 42 45 42 42 39 41 35 33 34 29 26 25 23 19 16 14 13 6 4 11 15 19 17 18 20 32 37
52 47 46 46 46 42 45 44 37 39 41 39 33 35 50 48 55 60 54 53 49 45 48 40 35 34 31 29 27 23 19 19 14 13 12 12 11 15 18 16 22 34 28
44 42 42 40 38 40 41 42 52 45 44 38 39 35 30 43 52 60 61 57 56 54 54 47 40 38 35 32 32 29 24 18 21 21 21 18 16 17 20 20 24 30 25
37 38 38 37 37 39 39 40 41 45 49 50 45 45 46 37 34 50 51 57 62 60 63 51 50 44 41 37 34 34 28 26 23 26 27 26 24 24 23 24 25 26 27
36 36 39 36 36 39 38 39 39 40 40 41 44 44 49 56 50 44 40 35 35 45 51 62 56 54 48 45 40 38 39 31 29 31 33 34 32 29 28 27 28 31 31
37 43 43 38 39 40 40 41 41 40 40 41 43 46 53 65 62 58 52 47 34 35 44 53 54 53 55 55 52 46 47 48 46 36 41 38 37 37 35 34 33 33 33
39 41 45 39 39 40 40 43 41 40 42 43 45 48 65 64 54 53 57 54 55 55 34 36 54 58 56 56 57 59 54 54 50 45 46 44 42 42 40 39 37 36 30
38 41 40 41 41 40 42 41 43 46 48 49 52 54 63 56 57 57 57 59 59 59 73 55 44 44 61 64 62 62 64 64 62 55 50 50 48 46 47 45 41 39 37
40 41 41 41 41 43 44 43 45 46 50 53 54 59 63 65 66 65 65 65 62 61 62 76 92 65 52 57 69 69 70 76 74 66 60 55 54 53 52 54 50 45 45
43 42 43 43 42 45 44 47 48 51 53 52 56 61 64 71 74 77 77 73 71 70 69 80 80 100 81 63 57 68 75 77 86 81 70 64 60 59 57 55 54 55 51
45 44 44 45 44 44 46 47 51 53 54 54 61 64 71 79 87 86 85 83 89 88 78 74 73 79 99 89 70 64 69 78 84 92 88 75 68 65 63 61 57 57 52
46 45 45 44 43 45 46 50 52 54 56 58 64 68 82 87 94 100 101 102 97 94 87 80 74 75 77 98 96 77 77 78 87 91 95 89 80 74 68 65 62 59 55
Wind_Direction_850mb
281 285 288 302 307 298 317 327 331 331 325 329 331 336 339 340 342 346 348 336 325 327 314 310 303 293 290 281 276 275 274 276 280 286 285 294 292 264 254 254 251 247 243
275 277 290 307 295 296 312 320 324 329 327 329 333 339 342 337 332 332 334 334 334 324 310 299 294 283 281 281 279 278 275 280 278 278 283 292 284 270 258 255 250 249 244
273 279 293 303 287 302 308 316 317 327 329 332 334 339 339 337 338 336 329 331 323 318 313 302 299 289 280 273 275 274 270 277 274 270 276 279 271 270 262 255 254 251 250
275 282 294 304 286 299 302 312 315 324 329 324 332 335 337 336 335 332 328 326 323 319 317 314 311 301 287 276 270 272 273 269 268 267 269 272 266 265 262 262 265 259 257
279 285 296 305 290 292 297 304 311 321 323 321 324 329 333 334 332 327 326 324 323 322 321 321 321 326 315 274 264 266 267 265 266 265 263 258 256 259 261 266 262 259 258
284 292 295 298 303 290 299 301 303 311 318 320 317 320 327 332 334 325 323 319 319 314 313 327 320 328 336 315 271 261 269 271 262 249 257 255 260 259 266 266 266 261 261
286 293 295 299 300 304 297 299 304 303 310 314 316 311 318 327 328 327 322 317 310 310 297 296 302 294 300 306 287 283 290 288 276 270 266 262 267 268 276 268 274 270 245
287 296 297 298 301 306 301 300 300 304 302 311 310 310 312 325 325 326 319 309 299 304 298 290 280 276 288 293 286 287 294 296 288 286 269 264 267 272 265 265 269 248 217
289 296 304 306 302 299 298 303 304 301 301 304 308 310 308 320 326 327 317 293 301 317 331 312 293 287 290 291 287 282 287 295 299 295 289 269 266 268 259 251 245 218 214
297 304 311 301 301 299 297 300 301 300 299 299 306 308 307 314 322 326 308 292 282 295 328 321 314 291 302 311 288 287 300 346 61 48 30 350 309 263 228 215 226 212 200
301 303 296 292 300 306 297 293 301 302 297 298 299 307 307 310 315 322 295 283 272 268 297 313 300 299 307 324 118 106 122 106 36 338 334 335 340 218 157 170 188 209 205
303 302 295 302 302 294 281 292 288 293 297 300 299 303 307 309 308 314 294 282 268 263 272 287 278 296 259 235 212 171 194 293 303 301 284 287 250 223 192 213 174 184 204
315 313 313 312 293 286 290 298 287 279 293 293 298 296 301 307 306 303 304 276 267 265 266 262 266 269 262 250 236 242 263 283 289 300 300 279 231 193 184 189 158 149 144
330 324 321 321 321 323 327 326 316 295 292 288 293 293 293 295 300 295 300 289 264 264 270 256 254 255 254 256 256 265 276 272 279 303 317 180 175 170 171 165 167 180 151
336 330 326 326 323 322 317 311 319 322 315 304 291 283 292 289 288 294 289 289 282 262 263 259 253 251 249 249 255 254 258 269 263 236 163 169 168 169 184 176 177 149 164
332 332 331 332 325 326 318 314 313 305 297 298 303 296 280 279 280 277 277 276 275 275 258 255 251 241 241 239 241 246 253 260 242 203 180 169 167 167 162 169 179 170 170
343 338 338 338 337 335 332 331 323 308 302 302 295 300 311 289 268 265 260 260 264 262 257 247 246 238 239 240 235 238 245 255 214 204 190 177 162 159 151 151 156 162 156
354 348 349 345 344 343 341 338 335 333 331 323 317 311 295 291 292 273 266 258 254 255 251 246 242 239 238 238 235 233 234 244 212 202 198 191 178 174 164 161 162 157 154
355 350 351 346 344 347 343 343 342 340 338 335 332 329 326 313 300 290 296 282 266 256 257 249 245 240 237 236 236 232 229 231 221 204 200 198 191 183 184 177 175 171 169
349 346 348 342 340 340 343 342 340 340 339 337 338 339 339 336 331 318 308 294 290 286 260 251 251 246 238 237 235 234 230 229 227 213 204 200 193 186 187 183 182 188 188
335 336 340 340 335 334 334 335 333 333 331 328 326 326 331 334 327 322 317 311 297 270 270 267 254 250 248 242 234 230 227 223 221 216 210 206 201 192 190 193 191 191 197
328 327 327 329 329 329 327 331 327 326 325 323 321 322 327 327 319 314 309 305 301 293 270 257 249 249 249 243 239 231 226 222 218 216 211 206 203 199 197 195 195 193 191
322 324 322 319 321 321 324 324 325 323 321 318 319 320 321 320 316 310 303 299 293 285 281 271 260 251 232 245 240 234 230 224 219 215 213 209 207 206 202 200 199 197 190
320 318 321 318 316 317 319 319 322 321 322 320 319 317 318 317 314 310 306 299 293 286 274 268 266 261 250 227 237 240 233 230 227 219 215 212 209 207 203 203 202 202 199
316 314 314 316 315 315 315 318 319 320 321 320 321 320 322 320 317 313 307 299 292 288 277 269 264 258 257 246 227 225 236 229 225 225 218 214 212 206 204 204 202 201 203
313 311 311 310 310 313 314 315 318 319 320 319 323 323 326 327 324 316 310 304 293 284 276 268 261 254 252 249 242 223 219 231 228 226 223 217 211 208 206 205 204 204 204